Year,Month,Day,Hour,Minute,Value (Times are PST for temperature in C)
2014,08,23,00,00,20.40
2014,08,23,00,01,20.30
2014,08,23,00,02,20.30
2014,08,23,00,03,20.30
2014,08,23,00,04,20.30
2014,08,23,00,05,20.30
2014,08,23,00,06,20.20
2014,08,23,00,07,20.20
2014,08,23,00,08,20.20
2014,08,23,00,09,20.20
2014,08,23,00,10,20.20
2014,08,23,00,11,20.10
2014,08,23,00,12,20.10
2014,08,23,00,13,20.10
2014,08,23,00,14,20.00
2014,08,23,00,15,20.00
2014,08,23,00,16,20.00
2014,08,23,00,17,19.90
2014,08,23,00,18,19.90
2014,08,23,00,19,19.90
2014,08,23,00,20,19.90
2014,08,23,00,21,19.80
2014,08,23,00,22,19.80
2014,08,23,00,23,19.80
2014,08,23,00,24,19.80
2014,08,23,00,25,19.80
2014,08,23,00,26,19.80
2014,08,23,00,27,19.80
2014,08,23,00,28,19.70
2014,08,23,00,29,19.70
2014,08,23,00,30,19.70
2014,08,23,00,31,19.70
2014,08,23,00,32,19.70
2014,08,23,00,33,19.60
2014,08,23,00,34,19.60
2014,08,23,00,35,19.60
2014,08,23,00,36,19.60
2014,08,23,00,37,19.60
2014,08,23,00,38,19.60
2014,08,23,00,39,19.60
2014,08,23,00,40,19.60
2014,08,23,00,41,19.60
2014,08,23,00,42,19.60
2014,08,23,00,43,19.60
2014,08,23,00,44,19.60
2014,08,23,00,45,19.60
2014,08,23,00,46,19.70
2014,08,23,00,47,19.70
2014,08,23,00,48,19.70
2014,08,23,00,49,19.70
2014,08,23,00,50,19.70
2014,08,23,00,51,19.80
2014,08,23,00,52,19.80
2014,08,23,00,53,19.80
2014,08,23,00,54,19.80
2014,08,23,00,55,19.80
2014,08,23,00,56,19.80
2014,08,23,00,57,19.80
2014,08,23,00,58,19.80
2014,08,23,00,59,19.80
2014,08,23,01,00,19.80
2014,08,23,01,01,19.70
2014,08,23,01,02,19.70
2014,08,23,01,03,19.70
2014,08,23,01,04,19.70
2014,08,23,01,05,19.70
2014,08,23,01,06,19.70
2014,08,23,01,07,19.70
2014,08,23,01,08,19.70
2014,08,23,01,09,19.70
2014,08,23,01,10,19.60
2014,08,23,01,11,19.60
2014,08,23,01,12,19.60
2014,08,23,01,13,19.60
2014,08,23,01,14,19.60
2014,08,23,01,15,19.60
2014,08,23,01,16,19.60
2014,08,23,01,17,19.60
2014,08,23,01,18,19.50
2014,08,23,01,19,19.60
2014,08,23,01,20,19.50
2014,08,23,01,21,19.50
2014,08,23,01,22,19.50
2014,08,23,01,23,19.50
2014,08,23,01,24,19.50
2014,08,23,01,25,19.50
2014,08,23,01,26,19.50
2014,08,23,01,27,19.40
2014,08,23,01,28,19.40
2014,08,23,01,29,19.40
2014,08,23,01,30,19.40
2014,08,23,01,31,19.40
2014,08,23,01,32,19.40
2014,08,23,01,33,19.40
2014,08,23,01,34,19.40
2014,08,23,01,35,19.30
2014,08,23,01,36,19.30
2014,08,23,01,37,19.30
2014,08,23,01,38,19.30
2014,08,23,01,39,19.30
2014,08,23,01,40,19.20
2014,08,23,01,41,19.20
2014,08,23,01,42,19.20
2014,08,23,01,43,19.20
2014,08,23,01,44,19.20
2014,08,23,01,45,19.10
2014,08,23,01,46,19.10
2014,08,23,01,47,19.10
2014,08,23,01,48,19.10
2014,08,23,01,49,19.00
2014,08,23,01,50,19.00
2014,08,23,01,51,18.90
2014,08,23,01,52,18.90
2014,08,23,01,53,18.80
2014,08,23,01,54,18.80
2014,08,23,01,55,18.80
2014,08,23,01,56,18.70
2014,08,23,01,57,18.70
2014,08,23,01,58,18.70
2014,08,23,01,59,18.70
2014,08,23,02,00,18.70
2014,08,23,02,01,18.60
2014,08,23,02,02,18.60
2014,08,23,02,03,18.60
2014,08,23,02,04,18.50
2014,08,23,02,05,18.50
2014,08,23,02,06,18.40
2014,08,23,02,07,18.40
2014,08,23,02,08,18.40
2014,08,23,02,09,18.40
2014,08,23,02,10,18.30
2014,08,23,02,11,18.30
2014,08,23,02,12,18.30
2014,08,23,02,13,18.30
2014,08,23,02,14,18.30
2014,08,23,02,15,18.30
2014,08,23,02,16,18.30
2014,08,23,02,17,18.30
2014,08,23,02,18,18.30
2014,08,23,02,19,18.30
2014,08,23,02,20,18.30
2014,08,23,02,21,18.30
2014,08,23,02,22,18.30
2014,08,23,02,23,18.30
2014,08,23,02,24,18.20
2014,08,23,02,25,18.20
2014,08,23,02,26,18.20
2014,08,23,02,27,18.20
2014,08,23,02,28,18.20
2014,08,23,02,29,18.20
2014,08,23,02,30,18.20
2014,08,23,02,31,18.20
2014,08,23,02,32,18.10
2014,08,23,02,33,18.10
2014,08,23,02,34,18.10
2014,08,23,02,35,18.10
2014,08,23,02,36,18.00
2014,08,23,02,37,18.00
2014,08,23,02,38,18.00
2014,08,23,02,39,17.90
2014,08,23,02,40,17.90
2014,08,23,02,41,17.90
2014,08,23,02,42,17.90
2014,08,23,02,43,17.80
2014,08,23,02,44,17.80
2014,08,23,02,45,17.80
2014,08,23,02,46,17.80
2014,08,23,02,47,17.80
2014,08,23,02,48,17.80
2014,08,23,02,49,17.70
2014,08,23,02,50,17.70
2014,08,23,02,51,17.70
2014,08,23,02,52,17.70
2014,08,23,02,53,17.70
2014,08,23,02,54,17.70
2014,08,23,02,55,17.70
2014,08,23,02,56,17.70
2014,08,23,02,57,17.60
2014,08,23,02,58,17.60
2014,08,23,02,59,17.60
2014,08,23,03,00,17.60
2014,08,23,03,01,17.60
2014,08,23,03,02,17.60
2014,08,23,03,03,17.50
2014,08,23,03,04,17.50
2014,08,23,03,05,17.50
2014,08,23,03,06,17.50
2014,08,23,03,07,17.50
2014,08,23,03,08,17.40
2014,08,23,03,09,17.40
2014,08,23,03,10,17.50
2014,08,23,03,11,17.50
2014,08,23,03,12,17.50
2014,08,23,03,13,17.50
2014,08,23,03,14,17.50
2014,08,23,03,15,17.50
2014,08,23,03,16,17.50
2014,08,23,03,17,17.50
2014,08,23,03,18,17.50
2014,08,23,03,19,17.50
2014,08,23,03,20,17.50
2014,08,23,03,21,17.50
2014,08,23,03,22,17.50
2014,08,23,03,23,17.50
2014,08,23,03,24,17.40
2014,08,23,03,25,17.40
2014,08,23,03,26,17.40
2014,08,23,03,27,17.40
2014,08,23,03,28,17.40
2014,08,23,03,29,17.40
2014,08,23,03,30,17.40
2014,08,23,03,31,17.40
2014,08,23,03,32,17.40
2014,08,23,03,33,17.40
2014,08,23,03,34,17.40
2014,08,23,03,35,17.30
2014,08,23,03,36,17.30
2014,08,23,03,37,17.30
2014,08,23,03,38,17.30
2014,08,23,03,39,17.30
2014,08,23,03,40,17.30
2014,08,23,03,41,17.20
2014,08,23,03,42,17.20
2014,08,23,03,43,17.20
2014,08,23,03,44,17.20
2014,08,23,03,45,17.20
2014,08,23,03,46,17.20
2014,08,23,03,47,17.20
2014,08,23,03,48,17.20
2014,08,23,03,49,17.20
2014,08,23,03,50,17.20
2014,08,23,03,51,17.10
2014,08,23,03,52,17.10
2014,08,23,03,53,17.10
2014,08,23,03,54,17.10
2014,08,23,03,55,17.10
2014,08,23,03,56,17.10
2014,08,23,03,57,17.10
2014,08,23,03,58,17.10
2014,08,23,03,59,17.10
2014,08,23,04,00,17.10
2014,08,23,04,01,17.10
2014,08,23,04,02,17.10
2014,08,23,04,03,17.10
2014,08,23,04,04,17.10
2014,08,23,04,05,17.10
2014,08,23,04,06,17.10
2014,08,23,04,07,17.10
2014,08,23,04,08,17.10
2014,08,23,04,09,17.10
2014,08,23,04,10,17.00
2014,08,23,04,11,17.00
2014,08,23,04,12,16.90
2014,08,23,04,13,16.90
2014,08,23,04,14,16.90
2014,08,23,04,15,16.90
2014,08,23,04,16,16.90
2014,08,23,04,17,16.80
2014,08,23,04,18,16.80
2014,08,23,04,19,16.80
2014,08,23,04,20,16.80
2014,08,23,04,21,16.80
2014,08,23,04,22,16.80
2014,08,23,04,23,16.90
2014,08,23,04,24,16.90
2014,08,23,04,25,16.90
2014,08,23,04,26,16.90
2014,08,23,04,27,16.90
2014,08,23,04,28,16.90
2014,08,23,04,29,16.90
2014,08,23,04,30,16.90
2014,08,23,04,31,16.90
2014,08,23,04,32,16.90
2014,08,23,04,33,16.90
2014,08,23,04,34,16.90
2014,08,23,04,35,16.90
2014,08,23,04,36,16.90
2014,08,23,04,37,16.90
2014,08,23,04,38,16.90
2014,08,23,04,39,16.90
2014,08,23,04,40,16.80
2014,08,23,04,41,16.80
2014,08,23,04,42,16.80
2014,08,23,04,43,16.80
2014,08,23,04,44,16.80
2014,08,23,04,45,16.80
2014,08,23,04,46,16.80
2014,08,23,04,47,16.80
2014,08,23,04,48,16.70
2014,08,23,04,49,16.70
2014,08,23,04,50,16.70
2014,08,23,04,51,16.70
2014,08,23,04,52,16.70
2014,08,23,04,53,16.70
2014,08,23,04,54,16.80
2014,08,23,04,55,16.80
2014,08,23,04,56,16.80
2014,08,23,04,57,16.80
2014,08,23,04,58,16.80
2014,08,23,04,59,16.80
2014,08,23,05,00,16.80
2014,08,23,05,01,16.80
2014,08,23,05,02,16.80
2014,08,23,05,03,16.80
2014,08,23,05,04,16.80
2014,08,23,05,05,16.80
2014,08,23,05,06,16.80
2014,08,23,05,07,16.80
2014,08,23,05,08,16.80
2014,08,23,05,09,16.80
2014,08,23,05,10,16.80
2014,08,23,05,11,16.90
2014,08,23,05,12,16.90
2014,08,23,05,13,16.90
2014,08,23,05,14,16.90
2014,08,23,05,15,16.90
2014,08,23,05,16,16.90
2014,08,23,05,17,16.90
2014,08,23,05,18,16.90
2014,08,23,05,19,16.90
2014,08,23,05,20,16.90
2014,08,23,05,21,16.90
2014,08,23,05,22,16.90
2014,08,23,05,23,16.90
2014,08,23,05,24,16.90
2014,08,23,05,25,16.90
2014,08,23,05,26,16.90
2014,08,23,05,27,16.80
2014,08,23,05,28,16.80
2014,08,23,05,29,16.80
2014,08,23,05,30,16.70
2014,08,23,05,31,16.70
2014,08,23,05,32,16.60
2014,08,23,05,33,16.60
2014,08,23,05,34,16.60
2014,08,23,05,35,16.50
2014,08,23,05,36,16.50
2014,08,23,05,37,16.40
2014,08,23,05,38,16.40
2014,08,23,05,39,16.30
2014,08,23,05,40,16.30
2014,08,23,05,41,16.30
2014,08,23,05,42,16.30
2014,08,23,05,43,16.20
2014,08,23,05,44,16.20
2014,08,23,05,45,16.20
2014,08,23,05,46,16.20
2014,08,23,05,47,16.10
2014,08,23,05,48,16.10
2014,08,23,05,49,16.10
2014,08,23,05,50,16.10
2014,08,23,05,51,16.10
2014,08,23,05,52,16.10
2014,08,23,05,53,16.00
2014,08,23,05,54,16.00
2014,08,23,05,55,16.00
2014,08,23,05,56,16.00
2014,08,23,05,57,16.00
2014,08,23,05,58,16.00
2014,08,23,05,59,16.00
2014,08,23,06,00,16.00
2014,08,23,06,01,16.00
2014,08,23,06,02,16.00
2014,08,23,06,03,16.00
2014,08,23,06,04,16.00
2014,08,23,06,05,16.00
2014,08,23,06,06,16.00
2014,08,23,06,07,16.00
2014,08,23,06,08,15.90
2014,08,23,06,09,16.00
2014,08,23,06,10,16.00
2014,08,23,06,11,16.00
2014,08,23,06,12,16.00
2014,08,23,06,13,16.00
2014,08,23,06,14,16.00
2014,08,23,06,15,16.00
2014,08,23,06,16,16.00
2014,08,23,06,17,16.00
2014,08,23,06,18,16.00
2014,08,23,06,19,16.00
2014,08,23,06,20,16.00
2014,08,23,06,21,16.00
2014,08,23,06,22,16.00
2014,08,23,06,23,16.00
2014,08,23,06,24,16.10
2014,08,23,06,25,16.10
2014,08,23,06,26,16.10
2014,08,23,06,27,16.10
2014,08,23,06,28,16.10
2014,08,23,06,29,16.10
2014,08,23,06,30,16.20
2014,08,23,06,31,16.20
2014,08,23,06,32,16.20
2014,08,23,06,33,16.20
2014,08,23,06,34,16.20
2014,08,23,06,35,16.20
2014,08,23,06,36,16.20
2014,08,23,06,37,16.20
2014,08,23,06,38,16.30
2014,08,23,06,39,16.20
2014,08,23,06,40,16.30
2014,08,23,06,41,16.30
2014,08,23,06,42,16.30
2014,08,23,06,43,16.20
2014,08,23,06,44,16.20
2014,08,23,06,45,16.20
2014,08,23,06,46,16.30
2014,08,23,06,47,16.30
2014,08,23,06,48,16.30
2014,08,23,06,49,16.30
2014,08,23,06,50,16.30
2014,08,23,06,51,16.30
2014,08,23,06,52,16.30
2014,08,23,06,53,16.30
2014,08,23,06,54,16.30
2014,08,23,06,55,16.30
2014,08,23,06,56,16.30
2014,08,23,06,57,16.30
2014,08,23,06,58,16.40
2014,08,23,06,59,16.40
2014,08,23,07,00,16.40
2014,08,23,07,01,16.40
2014,08,23,07,02,16.50
2014,08,23,07,03,16.50
2014,08,23,07,04,16.60
2014,08,23,07,05,16.60
2014,08,23,07,06,16.60
2014,08,23,07,07,16.70
2014,08,23,07,08,16.70
2014,08,23,07,09,16.70
2014,08,23,07,10,16.70
2014,08,23,07,11,16.80
2014,08,23,07,12,16.80
2014,08,23,07,13,16.80
2014,08,23,07,14,16.90
2014,08,23,07,15,16.90
2014,08,23,07,16,16.90
2014,08,23,07,17,17.00
2014,08,23,07,18,17.00
2014,08,23,07,19,17.10
2014,08,23,07,20,17.10
2014,08,23,07,21,17.10
2014,08,23,07,22,17.10
2014,08,23,07,23,17.10
2014,08,23,07,24,17.20
2014,08,23,07,25,17.20
2014,08,23,07,26,17.20
2014,08,23,07,27,17.20
2014,08,23,07,28,17.20
2014,08,23,07,29,17.20
2014,08,23,07,30,17.20
2014,08,23,07,31,17.30
2014,08,23,07,32,17.30
2014,08,23,07,33,17.30
2014,08,23,07,34,17.30
2014,08,23,07,35,17.30
2014,08,23,07,36,17.40
2014,08,23,07,37,17.40
2014,08,23,07,38,17.40
2014,08,23,07,39,17.40
2014,08,23,07,40,17.40
2014,08,23,07,41,17.50
2014,08,23,07,42,17.50
2014,08,23,07,43,17.60
2014,08,23,07,44,17.60
2014,08,23,07,45,17.60
2014,08,23,07,46,17.70
2014,08,23,07,47,17.70
2014,08,23,07,48,17.70
2014,08,23,07,49,17.80
2014,08,23,07,50,17.80
2014,08,23,07,51,17.90
2014,08,23,07,52,17.90
2014,08,23,07,53,17.90
2014,08,23,07,54,18.00
2014,08,23,07,55,18.00
2014,08,23,07,56,18.00
2014,08,23,07,57,18.10
2014,08,23,07,58,18.10
2014,08,23,07,59,18.10
2014,08,23,08,00,18.20
2014,08,23,08,01,18.20
2014,08,23,08,02,18.30
2014,08,23,08,03,18.30
2014,08,23,08,04,18.30
2014,08,23,08,05,18.30
2014,08,23,08,06,18.30
2014,08,23,08,07,18.30
2014,08,23,08,08,18.40
2014,08,23,08,09,18.40
2014,08,23,08,10,18.40
2014,08,23,08,11,18.50
2014,08,23,08,12,18.50
2014,08,23,08,13,18.50
2014,08,23,08,14,18.60
2014,08,23,08,15,18.60
2014,08,23,08,16,18.60
2014,08,23,08,17,18.60
2014,08,23,08,18,18.60
2014,08,23,08,19,18.70
2014,08,23,08,20,18.70
2014,08,23,08,21,18.70
2014,08,23,08,22,18.70
2014,08,23,08,23,18.70
2014,08,23,08,24,18.70
2014,08,23,08,25,18.70
2014,08,23,08,26,18.70
2014,08,23,08,27,18.80
2014,08,23,08,28,18.80
2014,08,23,08,29,18.80
2014,08,23,08,30,18.80
2014,08,23,08,31,18.90
2014,08,23,08,32,18.90
2014,08,23,08,33,18.90
2014,08,23,08,34,19.00
2014,08,23,08,35,19.00
2014,08,23,08,36,19.00
2014,08,23,08,37,19.00
2014,08,23,08,38,19.10
2014,08,23,08,39,19.10
2014,08,23,08,40,19.10
2014,08,23,08,41,19.10
2014,08,23,08,42,19.10
2014,08,23,08,43,19.00
2014,08,23,08,44,19.00
2014,08,23,08,45,19.00
2014,08,23,08,46,18.90
2014,08,23,08,47,18.90
2014,08,23,08,48,18.90
2014,08,23,08,49,18.90
2014,08,23,08,50,18.80
2014,08,23,08,51,18.80
2014,08,23,08,52,18.80
2014,08,23,08,53,18.80
2014,08,23,08,54,18.80
2014,08,23,08,55,18.80
2014,08,23,08,56,18.80
2014,08,23,08,57,18.80
2014,08,23,08,58,18.70
2014,08,23,08,59,18.70
2014,08,23,09,00,18.70
2014,08,23,09,01,18.70
2014,08,23,09,02,18.70
2014,08,23,09,03,18.70
2014,08,23,09,04,18.60
2014,08,23,09,05,18.60
2014,08,23,09,06,18.60
2014,08,23,09,07,18.60
2014,08,23,09,08,18.60
2014,08,23,09,09,18.60
2014,08,23,09,10,18.60
2014,08,23,09,11,18.60
2014,08,23,09,12,18.60
2014,08,23,09,13,18.60
2014,08,23,09,14,18.60
2014,08,23,09,15,18.70
2014,08,23,09,16,18.70
2014,08,23,09,17,18.80
2014,08,23,09,18,18.80
2014,08,23,09,19,18.80
2014,08,23,09,20,18.90
2014,08,23,09,21,18.90
2014,08,23,09,22,19.00
2014,08,23,09,23,19.00
2014,08,23,09,24,19.10
2014,08,23,09,25,19.10
2014,08,23,09,26,19.10
2014,08,23,09,27,19.20
2014,08,23,09,28,19.20
2014,08,23,09,29,19.30
2014,08,23,09,30,19.30
2014,08,23,09,31,19.30
2014,08,23,09,32,19.30
2014,08,23,09,33,19.30
2014,08,23,09,34,19.30
2014,08,23,09,35,19.30
2014,08,23,09,36,19.30
2014,08,23,09,37,19.40
2014,08,23,09,38,19.40
2014,08,23,09,39,19.40
2014,08,23,09,40,19.40
2014,08,23,09,41,19.40
2014,08,23,09,42,19.40
2014,08,23,09,43,19.50
2014,08,23,09,44,19.50
2014,08,23,09,45,19.50
2014,08,23,09,46,19.50
2014,08,23,09,47,19.60
2014,08,23,09,48,19.50
2014,08,23,09,49,19.50
2014,08,23,09,50,19.50
2014,08,23,09,51,19.50
2014,08,23,09,52,19.40
2014,08,23,09,53,19.40
2014,08,23,09,54,19.40
2014,08,23,09,55,19.40
2014,08,23,09,56,19.40
2014,08,23,09,57,19.40
2014,08,23,09,58,19.40
2014,08,23,09,59,19.50
2014,08,23,10,00,19.50
2014,08,23,10,01,19.50
2014,08,23,10,02,19.60
2014,08,23,10,03,19.60
2014,08,23,10,04,19.70
2014,08,23,10,05,19.80
2014,08,23,10,06,19.80
2014,08,23,10,07,19.90
2014,08,23,10,08,20.00
2014,08,23,10,09,20.10
2014,08,23,10,10,20.10
2014,08,23,10,11,20.10
2014,08,23,10,12,20.10
2014,08,23,10,13,20.10
2014,08,23,10,14,20.10
2014,08,23,10,15,20.20
2014,08,23,10,16,20.20
2014,08,23,10,17,20.20
2014,08,23,10,18,20.20
2014,08,23,10,19,20.20
2014,08,23,10,20,20.20
2014,08,23,10,21,20.20
2014,08,23,10,22,20.30
2014,08,23,10,23,20.30
2014,08,23,10,24,20.30
2014,08,23,10,25,20.30
2014,08,23,10,26,20.30
2014,08,23,10,27,20.30
2014,08,23,10,28,20.30
2014,08,23,10,29,20.30
2014,08,23,10,30,20.30
2014,08,23,10,31,20.30
2014,08,23,10,32,20.30
2014,08,23,10,33,20.30
2014,08,23,10,34,20.30
2014,08,23,10,35,20.30
2014,08,23,10,36,20.30
2014,08,23,10,37,20.40
2014,08,23,10,38,20.40
2014,08,23,10,39,20.50
2014,08,23,10,40,20.50
2014,08,23,10,41,20.60
2014,08,23,10,42,20.60
2014,08,23,10,43,20.70
2014,08,23,10,44,20.70
2014,08,23,10,45,20.70
2014,08,23,10,46,20.80
2014,08,23,10,47,20.80
2014,08,23,10,48,20.80
2014,08,23,10,49,20.80
2014,08,23,10,50,20.80
2014,08,23,10,51,20.80
2014,08,23,10,52,20.80
2014,08,23,10,53,20.80
2014,08,23,10,54,20.80
2014,08,23,10,55,20.80
2014,08,23,10,56,20.80
2014,08,23,10,57,20.80
2014,08,23,10,58,20.80
2014,08,23,10,59,20.80
2014,08,23,11,00,20.80
2014,08,23,11,01,20.70
2014,08,23,11,02,20.70
2014,08,23,11,03,20.60
2014,08,23,11,04,20.60
2014,08,23,11,05,20.60
2014,08,23,11,06,20.60
2014,08,23,11,07,20.60
2014,08,23,11,08,20.70
2014,08,23,11,09,20.70
2014,08,23,11,10,20.70
2014,08,23,11,11,20.80
2014,08,23,11,12,20.80
2014,08,23,11,13,20.80
2014,08,23,11,14,20.80
2014,08,23,11,15,20.80
2014,08,23,11,16,20.90
2014,08,23,11,17,20.90
2014,08,23,11,18,20.90
2014,08,23,11,19,21.00
2014,08,23,11,20,21.10
2014,08,23,11,21,21.10
2014,08,23,11,22,21.10
2014,08,23,11,23,21.10
2014,08,23,11,24,21.00
2014,08,23,11,25,21.00
2014,08,23,11,26,20.90
2014,08,23,11,27,20.90
2014,08,23,11,28,21.00
2014,08,23,11,29,21.10
2014,08,23,11,30,21.20
2014,08,23,11,31,21.30
2014,08,23,11,32,21.30
2014,08,23,11,33,21.40
2014,08,23,11,34,21.40
2014,08,23,11,35,21.40
2014,08,23,11,36,21.40
2014,08,23,11,37,21.30
2014,08,23,11,38,21.30
2014,08,23,11,39,21.20
2014,08,23,11,40,21.20
2014,08,23,11,41,21.20
2014,08,23,11,42,21.30
2014,08,23,11,43,21.30
2014,08,23,11,44,21.40
2014,08,23,11,45,21.40
2014,08,23,11,46,21.40
2014,08,23,11,47,21.40
2014,08,23,11,48,21.30
2014,08,23,11,49,21.30
2014,08,23,11,50,21.30
2014,08,23,11,51,21.30
2014,08,23,11,52,21.30
2014,08,23,11,53,21.30
2014,08,23,11,54,21.30
2014,08,23,11,55,21.30
2014,08,23,11,56,21.40
2014,08,23,11,57,21.50
2014,08,23,11,58,21.50
2014,08,23,11,59,21.70
2014,08,23,12,00,21.70
2014,08,23,12,01,21.80
2014,08,23,12,02,21.80
2014,08,23,12,03,21.90
2014,08,23,12,04,21.90
2014,08,23,12,05,22.00
2014,08,23,12,06,22.10
2014,08,23,12,07,22.10
2014,08,23,12,08,22.10
2014,08,23,12,09,22.00
2014,08,23,12,10,21.90
2014,08,23,12,11,21.90
2014,08,23,12,12,21.90
2014,08,23,12,13,21.90
2014,08,23,12,14,21.90
2014,08,23,12,15,21.90
2014,08,23,12,16,22.00
2014,08,23,12,17,22.00
2014,08,23,12,18,22.10
2014,08,23,12,19,22.10
2014,08,23,12,20,22.20
2014,08,23,12,21,22.20
2014,08,23,12,22,22.20
2014,08,23,12,23,22.20
2014,08,23,12,24,22.20
2014,08,23,12,25,22.30
2014,08,23,12,26,22.30
2014,08,23,12,27,22.30
2014,08,23,12,28,22.20
2014,08,23,12,29,22.20
2014,08,23,12,30,22.10
2014,08,23,12,31,22.10
2014,08,23,12,32,22.20
2014,08,23,12,33,22.20
2014,08,23,12,34,22.20
2014,08,23,12,35,22.20
2014,08,23,12,36,22.20
2014,08,23,12,37,22.10
2014,08,23,12,38,22.20
2014,08,23,12,39,22.20
2014,08,23,12,40,22.30
2014,08,23,12,41,22.30
2014,08,23,12,42,22.30
2014,08,23,12,43,22.40
2014,08,23,12,44,22.50
2014,08,23,12,45,22.60
2014,08,23,12,46,22.70
2014,08,23,12,47,22.70
2014,08,23,12,48,22.70
2014,08,23,12,49,22.70
2014,08,23,12,50,22.70
2014,08,23,12,51,22.70
2014,08,23,12,52,22.70
2014,08,23,12,53,22.70
2014,08,23,12,54,22.70
2014,08,23,12,55,22.80
2014,08,23,12,56,22.80
2014,08,23,12,57,22.90
2014,08,23,12,58,22.90
2014,08,23,12,59,22.90
2014,08,23,13,00,23.00
2014,08,23,13,01,23.00
2014,08,23,13,02,23.00
2014,08,23,13,03,23.10
2014,08,23,13,04,23.10
2014,08,23,13,05,23.10
2014,08,23,13,06,23.10
2014,08,23,13,07,23.10
2014,08,23,13,08,23.20
2014,08,23,13,09,23.20
2014,08,23,13,10,23.20
2014,08,23,13,11,23.10
2014,08,23,13,12,23.10
2014,08,23,13,13,23.10
2014,08,23,13,14,23.20
2014,08,23,13,15,23.20
2014,08,23,13,16,23.20
2014,08,23,13,17,23.20
2014,08,23,13,18,23.20
2014,08,23,13,19,23.20
2014,08,23,13,20,23.20
2014,08,23,13,21,23.30
2014,08,23,13,22,23.30
2014,08,23,13,23,23.30
2014,08,23,13,24,23.30
2014,08,23,13,25,23.30
2014,08,23,13,26,23.30
2014,08,23,13,27,23.30
2014,08,23,13,28,23.30
2014,08,23,13,29,23.30
2014,08,23,13,30,23.30
2014,08,23,13,31,23.40
2014,08,23,13,32,23.50
2014,08,23,13,33,23.60
2014,08,23,13,34,23.60
2014,08,23,13,35,23.70
2014,08,23,13,36,23.70
2014,08,23,13,37,23.80
2014,08,23,13,38,23.80
2014,08,23,13,39,23.80
2014,08,23,13,40,23.90
2014,08,23,13,41,23.90
2014,08,23,13,42,23.90
2014,08,23,13,43,24.00
2014,08,23,13,44,24.00
2014,08,23,13,45,24.10
2014,08,23,13,46,24.10
2014,08,23,13,47,24.10
2014,08,23,13,48,24.10
2014,08,23,13,49,24.10
2014,08,23,13,50,24.10
2014,08,23,13,51,24.10
2014,08,23,13,52,24.00
2014,08,23,13,53,24.00
2014,08,23,13,54,24.00
2014,08,23,13,55,24.00
2014,08,23,13,56,24.00
2014,08,23,13,57,24.10
2014,08,23,13,58,24.20
2014,08,23,13,59,24.20
2014,08,23,14,00,24.30
2014,08,23,14,01,24.30
2014,08,23,14,02,24.30
2014,08,23,14,03,24.30
2014,08,23,14,04,24.40
2014,08,23,14,05,24.50
2014,08,23,14,06,24.50
2014,08,23,14,07,24.50
2014,08,23,14,08,24.50
2014,08,23,14,09,24.50
2014,08,23,14,10,24.40
2014,08,23,14,11,24.40
2014,08,23,14,12,24.40
2014,08,23,14,13,24.30
2014,08,23,14,14,24.30
2014,08,23,14,15,24.20
2014,08,23,14,16,24.20
2014,08,23,14,17,24.20
2014,08,23,14,18,24.20
2014,08,23,14,19,24.20
2014,08,23,14,20,24.20
2014,08,23,14,21,24.20
2014,08,23,14,22,24.20
2014,08,23,14,23,24.30
2014,08,23,14,24,24.30
2014,08,23,14,25,24.40
2014,08,23,14,26,24.50
2014,08,23,14,27,24.50
2014,08,23,14,28,24.50
2014,08,23,14,29,24.40
2014,08,23,14,30,24.40
2014,08,23,14,31,24.40
2014,08,23,14,32,24.40
2014,08,23,14,33,24.50
2014,08,23,14,34,24.50
2014,08,23,14,35,24.60
2014,08,23,14,36,24.60
2014,08,23,14,37,24.60
2014,08,23,14,38,24.70
2014,08,23,14,39,24.80
2014,08,23,14,40,24.80
2014,08,23,14,41,24.80
2014,08,23,14,42,24.80
2014,08,23,14,43,24.70
2014,08,23,14,44,24.70
2014,08,23,14,45,24.70
2014,08,23,14,46,24.70
2014,08,23,14,47,24.60
2014,08,23,14,48,24.60
2014,08,23,14,49,24.60
2014,08,23,14,50,24.60
2014,08,23,14,51,24.60
2014,08,23,14,52,24.60
2014,08,23,14,53,24.70
2014,08,23,14,54,24.70
2014,08,23,14,55,24.70
2014,08,23,14,56,24.80
2014,08,23,14,57,24.80
2014,08,23,14,58,24.80
2014,08,23,14,59,24.80
2014,08,23,15,00,24.90
2014,08,23,15,01,24.90
2014,08,23,15,02,25.00
2014,08,23,15,03,25.10
2014,08,23,15,04,25.10
2014,08,23,15,05,25.00
2014,08,23,15,06,25.00
2014,08,23,15,07,25.10
2014,08,23,15,08,25.20
2014,08,23,15,09,25.20
2014,08,23,15,10,25.30
2014,08,23,15,11,25.30
2014,08,23,15,12,25.40
2014,08,23,15,13,25.40
2014,08,23,15,14,25.40
2014,08,23,15,15,25.40
2014,08,23,15,16,25.40
2014,08,23,15,17,25.40
2014,08,23,15,18,25.40
2014,08,23,15,19,25.30
2014,08,23,15,20,25.30
2014,08,23,15,21,25.30
2014,08,23,15,22,25.20
2014,08,23,15,23,25.10
2014,08,23,15,24,25.00
2014,08,23,15,25,24.90
2014,08,23,15,26,24.90
2014,08,23,15,27,24.90
2014,08,23,15,28,24.90
2014,08,23,15,29,24.90
2014,08,23,15,30,24.80
2014,08,23,15,31,24.80
2014,08,23,15,32,24.70
2014,08,23,15,33,24.70
2014,08,23,15,34,24.60
2014,08,23,15,35,24.50
2014,08,23,15,36,24.50
2014,08,23,15,37,24.40
2014,08,23,15,38,24.40
2014,08,23,15,39,24.40
2014,08,23,15,40,24.40
2014,08,23,15,41,24.40
2014,08,23,15,42,24.40
2014,08,23,15,43,24.30
2014,08,23,15,44,24.40
2014,08,23,15,45,24.40
2014,08,23,15,46,24.40
2014,08,23,15,47,24.50
2014,08,23,15,48,24.50
2014,08,23,15,49,24.60
2014,08,23,15,50,24.70
2014,08,23,15,51,24.70
2014,08,23,15,52,24.80
2014,08,23,15,53,24.90
2014,08,23,15,54,24.90
2014,08,23,15,55,25.00
2014,08,23,15,56,25.00
2014,08,23,15,57,25.10
2014,08,23,15,58,25.10
2014,08,23,15,59,25.20
2014,08,23,16,00,25.20
2014,08,23,16,01,25.20
2014,08,23,16,02,25.20
2014,08,23,16,03,25.30
2014,08,23,16,04,25.30
2014,08,23,16,05,25.30
2014,08,23,16,06,25.40
2014,08,23,16,07,25.40
2014,08,23,16,08,25.40
2014,08,23,16,09,25.50
2014,08,23,16,10,25.50
2014,08,23,16,11,25.50
2014,08,23,16,12,25.50
2014,08,23,16,13,25.50
2014,08,23,16,14,25.50
2014,08,23,16,15,25.50
2014,08,23,16,16,25.50
2014,08,23,16,17,25.40
2014,08,23,16,18,25.40
2014,08,23,16,19,25.40
2014,08,23,16,20,25.40
2014,08,23,16,21,25.40
2014,08,23,16,22,25.40
2014,08,23,16,23,25.40
2014,08,23,16,24,25.50
2014,08,23,16,25,25.50
2014,08,23,16,26,25.60
2014,08,23,16,27,25.50
2014,08,23,16,28,25.40
2014,08,23,16,29,25.40
2014,08,23,16,30,25.30
2014,08,23,16,31,25.40
2014,08,23,16,32,25.40
2014,08,23,16,33,25.40
2014,08,23,16,34,25.50
2014,08,23,16,35,25.50
2014,08,23,16,36,25.60
2014,08,23,16,37,25.50
2014,08,23,16,38,25.40
2014,08,23,16,39,25.30
2014,08,23,16,40,25.30
2014,08,23,16,41,25.30
2014,08,23,16,42,25.30
2014,08,23,16,43,25.30
2014,08,23,16,44,25.30
2014,08,23,16,45,25.30
2014,08,23,16,46,25.30
2014,08,23,16,47,25.40
2014,08,23,16,48,25.40
2014,08,23,16,49,25.40
2014,08,23,16,50,25.30
2014,08,23,16,51,25.30
2014,08,23,16,52,25.30
2014,08,23,16,53,25.30
2014,08,23,16,54,25.30
2014,08,23,16,55,25.30
2014,08,23,16,56,25.30
2014,08,23,16,57,25.30
2014,08,23,16,58,25.30
2014,08,23,16,59,25.30
2014,08,23,17,00,25.30
2014,08,23,17,01,25.30
2014,08,23,17,02,25.30
2014,08,23,17,03,25.20
2014,08,23,17,04,25.20
2014,08,23,17,05,25.20
2014,08,23,17,06,25.20
2014,08,23,17,07,25.20
2014,08,23,17,08,25.20
2014,08,23,17,09,25.20
2014,08,23,17,10,25.20
2014,08,23,17,11,25.20
2014,08,23,17,12,25.20
2014,08,23,17,13,25.10
2014,08,23,17,14,25.10
2014,08,23,17,15,25.10
2014,08,23,17,16,25.10
2014,08,23,17,17,25.10
2014,08,23,17,18,25.20
2014,08,23,17,19,25.20